This is the latest recevied weather packets stored in our database for station/object HB9FHL-13. If no packets are shown the sender has not sent any weather packets the latest 10 day(s).
| Time | Temp. | Humidity | Pressure | Rain* | Wind** | Luminosity | Snow |
|---|---|---|---|---|---|---|---|
| 1787896127 | 23.89° C | - | 1016.5 hPa | 0 mm | - | - | - |
| 1787895826 | 23.33° C | - | 1013.2 hPa | 0 mm | - | - | - |
| 1787895526 | 23.89° C | - | 1013.3 hPa | 0 mm | - | - | - |
| 1787895225 | 23.33° C | - | 1015.7 hPa | 0 mm | - | - | - |
| 1787894925 | 22.78° C | - | 1013.4 hPa | 0 mm | - | - | - |
| 1787894625 | 22.78° C | - | 1012.6 hPa | 0 mm | - | - | - |
| 1787894324 | 23.33° C | - | 1014.8 hPa | 0 mm | - | - | - |
| 1787894024 | 23.33° C | - | 1015.6 hPa | 0 mm | - | - | - |
| 1787893723 | 23.33° C | - | 1012.6 hPa | 0 mm | - | - | - |
| 1787893479 | 23.33° C | - | 1013.5 hPa | 0 mm | - | - | - |
| 1787893423 | 23.33° C | - | 1013.5 hPa | 0 mm | - | - | - |
| 1787893122 | 22.78° C | - | 1015.3 hPa | 0 mm | - | - | - |
| 1787892822 | 22.22° C | - | 1012.8 hPa | 0 mm | - | - | - |
| 1787892521 | 23.33° C | - | 1013.6 hPa | 0 mm | - | - | - |
| 1787892221 | 23.89° C | - | 1015.4 hPa | 0 mm | - | - | - |
| 1787891920 | 23.33° C | - | 1014.7 hPa | 0 mm | - | - | - |
| 1787891620 | 23.33° C | - | 1012 hPa | 0 mm | - | - | - |
| 1787891319 | 23.89° C | - | 1012.3 hPa | 0 mm | - | - | - |
| 1787891098 | 23.89° C | - | 1014.9 hPa | 0 mm | - | - | - |
| 1787891019 | 23.89° C | - | 1014.9 hPa | 0 mm | - | - | - |
| 1787890718 | 22.78° C | - | 1015.3 hPa | 0 mm | - | - | - |
| 1787890418 | 24.44° C | - | 1014.2 hPa | 0 mm | - | - | - |
| 1787890117 | 24.44° C | - | 1017.1 hPa | 0 mm | - | - | - |
| 1787889817 | 24.44° C | - | 1013.8 hPa | 0 mm | - | - | - |
| 1787889516 | 24.44° C | - | 1017.2 hPa | 0 mm | - | - | - |
* Rain since midnight (hover to see other rain measurements)
** Current wind speed in m/s (hover to see current wind gust speed)